Weather Service Report


592 
ASUS46 KSEW 020110
RWRWA 

WASHINGTON REGIONAL WEATHER ROUNDUP
NATIONAL WEATHER SERVICE SEATTLE WA
600 PM PDT WED APR 01 2015

NOTE:"FAIR" INDICATES FEW OR NO CLOUDS BELOW 12,000 FEET WITH NO 
SIGNIFICANT WEATHER AND/OR OBSTRUCTIONS TO VISIBILITY.

WAZ505-507>509-020200-
SEATTLE, TACOMA, EVERETT, AND VICINITY
  
CITY           SKY/WX    TMP DP  RH WIND       PRES   REMARKS
EVERETT        CLOUDY    50  35  56 W9        30.26R                  
BOEING FIELD   PTSUNNY   50  38  63 S9        30.27S                  
RENTON         PTSUNNY   48  39  71 S8        30.28R                  
SEATAC AIRPORT PTSUNNY   46  40  79 S8        30.28R                  
JBLM-MCCHORD   CLOUDY    48  43  82 SE6       30.27S                  
PUYALLUP       FAIR      48  43  81 VRB3      30.28S                  
BREMERTON      CLOUDY    46  45  93 S8        30.28F                  
JBLM-FT LEWIS  MOSUNNY   50  45  84 S9        30.27S                  
TACOMA NARROWS LGT RAIN  48  41  76 S8        30.28R                  
$$
 
WAZ001-503-506-510-514-515-020200-
NORTH INTERIOR
  
CITY           SKY/WX    TMP DP  RH WIND       PRES   REMARKS
BELLINGHAM     MOSUNNY   51  39  63 VRB3      30.25R                  
FRIDAY HARBOR  PTSUNNY   49  37  63 SW6       30.27R                  
EASTSOUND      PTSUNNY   50  41  71 CALM      30.25R                  
PORT ANGELES   PTSUNNY   49  39  68 W12G21    30.28R                  
NAS WHIDBEY    PTSUNNY   51  41  68 W6        30.27S                  
ARLINGTON      PTSUNNY   52  37  58 NW10      30.27R                  
BURLINGTON       N/A     50  39  66 MISG      30.26S                  
$$
 
WAZ020-022-039-040-504-511-512-020200-
SOUTHWEST INTERIOR
  
CITY           SKY/WX    TMP DP  RH WIND       PRES   REMARKS
SHELTON        PTSUNNY   51  40  65 SW16      30.24R                  
OLYMPIA        PTSUNNY   49  40  71 SW8       30.27F                  
CHEHALIS       MOCLDY    48  43  81 SW5       30.29S                  
KELSO          PTSUNNY   46  39  76 N5        30.35R                  
VANCOUVER      LGT RAIN  48  40  73 CALM      30.31S                  
SCAPPOOSE, OR  LGT RAIN  48  42  80 CALM      30.31S                  
PORTLAND, OR   LGT RAIN  49  39  68 CALM      30.32S                  
$$
 
WAZ021-516-517-020200-
WASHINGTON COAST
  
CITY           SKY/WX    TMP DP  RH WIND       PRES   REMARKS
FORKS          PTSUNNY   50  40  68 W9        30.30R                  
HOQUIAM        MOSUNNY   51  40  65 W14       30.29S                  
ASTORIA, OR    LGT RAIN  51  40  65 NW9       30.31S                  
$$
 
WAZ019-023-024-040-518-519-020200-
CASCADE MOUNTAINS AND COLUMBIA GORGE
  
CITY           SKY/WX    TMP DP  RH WIND       PRES   REMARKS
TROUTDALE, OR  PTSUNNY   49  40  71 E6        30.31S                  
THE DALLES, OR CLOUDY    50  36  58 NW23G29   30.23R                  
$$

WAZ026-027-041>044-520-521-020200-
EAST SLOPES
  
CITY           SKY/WX    TMP DP  RH WIND       PRES   REMARKS
OMAK           LGT RAIN  56  24  29 N15       30.06S                  
WENATCHEE      MOSUNNY   57  21  24 NW16      30.10R                  
ELLENSBURG     MOSUNNY   48  29  47 NW26G37   30.12F                  
YAKIMA         MOSUNNY   58  27  30 W15       30.12S                  
$$

WAZ028-034-035-020200-
COLUMBIA BASIN
  
CITY           SKY/WX    TMP DP  RH WIND       PRES   REMARKS
EPHRATA        PTSUNNY   58  18  21 NW15G23   30.07R                  
MOSES LAKE     PTSUNNY   59  18  20 W22       30.07F                  
PASCO          MOSUNNY   57  28  33 SE5       30.12F                  
HERMISTON, OR  MOSUNNY   56  27  32 W14       30.13S                  
$$

WAZ036>038-020200-
NORTHEAST WASHINGTON
  
CITY           SKY/WX    TMP DP  RH WIND       PRES   REMARKS
SPOKANE GEIGER PTSUNNY   47  26  44 SW13      30.06F                  
SPOKANE FELTS  PTSUNNY   45  35  68 CALM      30.08F                  
FAIRCHILD AFB  PTSUNNY   46  29  50 S9        30.05F                  
COEURDALENE,ID CLOUDY    39  34  81 S9        30.09S                  
DEER PARK      PTSUNNY   42  34  73 SE6       30.09R                  
$$

WAZ029>033-020200-
SOUTHEAST WASHINGTON
  
CITY           SKY/WX    TMP DP  RH WIND       PRES   REMARKS
PULLMAN        MOSUNNY   45  27  49 SW17G23   30.10F                  
LEWISTON, ID   MOSUNNY   50  26  39 NW9       30.11R                  
WALLA WALLA    MOSUNNY   55  28  35 W12       30.13S                  
PENDLETON, OR  MOSUNNY   53  24  32 W15       30.12F                  
$$

Return to Home page


Western Regional Climate Center, wrcc@dri.edu